Location: Newark
(48.6461°N, 4.3644°W)
Time: 22:08:29
(UTC+00:00)

S-56A Canister/Altair - Pass Details

Date: 21 January 2020
Orbit: 633 x 2499 km, 38.9° (Epoch: 19 February)

Event Time Altitude Azimuth Distance (km) Brightness Sun altitude
Rises 01:26:05 0° 257° (WSW) 2,929 - -59.2°
Reaches altitude 10° 01:28:47 10° 241° (WSW) 2,011 - -58.9°
Maximum altitude 01:32:10 21° 191° (S) 1,468 - -58.7°
Drops below altitude 10° 01:35:54 10° 142° (SE) 2,241 - -58.4°
Sets 01:39:06 0° 127° (SE) 3,375 - -58.1°
